Weather History for Proserpine, QU

Change the Weather History Date:

Friday, January 3, 2014

  Actual Average Record
Temperature  
Mean Temperature 82 °F -  
Max Temperature 97 °F - - ()
Min Temperature 67 °F - - ()
Cooling Degree Days 17    
Growing Degree Days 32 (Base 50)    
Moisture  
Dew Point 70 °F    
Average Humidity 67    
Maximum Humidity 94    
Minimum Humidity 32    
Precipitation  
Precipitation 0.00 in - - ()
Sea Level Pressure  
Sea Level Pressure 29.75 in    
Wind  
Wind Speed 5 mph ()    
Max Wind Speed 14 mph    
Max Gust Speed -    
Visibility 6.2 miles    
Events      
T = Trace of Precipitation, MM = Missing Value Source: Averaged Metar Reports

Daily Weather History Graph

Daily Weather History Graph

Search for Another Location

Airport:

Trip Planner

Search our weather history database for the weather conditions in past years. The results will help you decide how hot, cold, wet, or windy it might be!

Date:

Astronomy

Jan. 03, 2014 Rise Set
Actual Time 5:29 AM AEST 6:50 PM AEST
Civil Twilight 5:05 AM AEST 7:14 PM AEST
Nautical Twilight 4:36 AM AEST 7:44 PM AEST
Astronomical Twilight 4:05 AM AEST 8:14 PM AEST
Moon 7:08 AM AEST (1/3) 8:20 PM AEST (1/3)
Length of Visible Light 14h 09m
Length of Day
13h 20m
Waxing Crescent, 4% of the Moon is Illuminated
Jan 3
Waxing Crescent
Jan 8
First Quarter
Jan 16
Full
Jan 24
Last Quarter
Jan 31
New

Hourly Weather History & Observations

Time (AEST) Temp. Heat Index Dew Point Humidity Pressure Visibility Wind Dir Wind Speed Gust Speed Precip Events Conditions
12:00 AM 73 °F - 69 °F 82% 29.83 in - Calm Calm - -  
12:00 AM 73.4 °F - 68.0 °F 83% 29.83 in 6.2 mi Calm Calm - N/A   Unknown
1:00 AM 71.6 °F - 68.0 °F 88% 29.80 in 6.2 mi Calm Calm - N/A   Unknown
2:00 AM 71.6 °F - 68.0 °F 88% 29.77 in 6.2 mi Calm Calm - N/A   Unknown
3:00 AM 70 °F - 67 °F 88% 29.78 in - Calm Calm - -  
3:00 AM 69.8 °F - 68.0 °F 94% 29.77 in 6.2 mi Calm Calm - N/A   Unknown
4:00 AM 68.0 °F - 66.2 °F 94% 29.77 in 6.2 mi North 2.3 mph - N/A   Unknown
5:00 AM 69.8 °F - 68.0 °F 94% 29.80 in 6.2 mi Calm Calm - N/A   Unknown
6:00 AM 69 °F - 67 °F 90% 29.81 in - Calm Calm - -  
6:00 AM 68.0 °F - 66.2 °F 94% 29.80 in 6.2 mi Calm Calm - N/A   Unknown
7:00 AM 77.0 °F - 69.8 °F 78% 29.83 in 6.2 mi West 1.2 mph - N/A   Unknown
8:00 AM 84.2 °F 89.6 °F 71.6 °F 66% 29.80 in 6.2 mi NW 10.4 mph - N/A   Unknown
9:00 AM 87 °F - 70 °F 47% 29.82 in - NNW 12.7 mph - -  
9:00 AM 86.0 °F 90.4 °F 69.8 °F 58% 29.80 in 6.2 mi NNW 12.7 mph - N/A   Unknown
10:00 AM 89.6 °F 92.2 °F 66.2 °F 46% 29.80 in 6.2 mi NNW 13.8 mph - N/A   Unknown
11:00 AM 91.4 °F 96.8 °F 69.8 °F 49% 29.77 in 6.2 mi North 12.7 mph - N/A   Unknown
12:00 PM 93 °F - 68 °F 34% 29.76 in - North 12.7 mph - -  
12:00 PM 93.2 °F 97.7 °F 68.0 °F 44% 29.74 in 6.2 mi North 10.4 mph - N/A   Unknown
1:00 PM 96.8 °F 103.1 °F 69.8 °F 41% 29.71 in 6.2 mi NW 13.8 mph - N/A   Unknown
2:00 PM 96.8 °F 103.1 °F 69.8 °F 41% 29.68 in 6.2 mi North 12.7 mph - N/A   Unknown
3:00 PM 97 °F - 70 °F 32% 29.67 in - NNW 12.7 mph - -  
3:00 PM 96.8 °F 103.1 °F 69.8 °F 41% 29.65 in 6.2 mi NNW 11.5 mph - N/A   Unknown
4:00 PM 96.8 °F 100.7 °F 66.2 °F 37% 29.65 in 6.2 mi North 12.7 mph - N/A   Unknown
5:00 PM 95.0 °F 99.5 °F 68.0 °F 41% 29.65 in 6.2 mi NNW 11.5 mph - N/A   Unknown
6:00 PM 91 °F - 72 °F 44% 29.67 in - North 8.1 mph - -  
6:00 PM 91.4 °F 98.4 °F 71.6 °F 52% 29.65 in 6.2 mi North 8.1 mph - N/A   Unknown
7:00 PM 84.2 °F 90.9 °F 73.4 °F 70% 29.68 in 6.2 mi North 6.9 mph - N/A   Unknown
8:00 PM 80.6 °F 85.4 °F 73.4 °F 79% 29.71 in 6.2 mi NNW 9.2 mph - N/A   Unknown
9:00 PM 79 °F - 74 °F 81% 29.74 in - NNW 8.1 mph - -  
9:00 PM 78.8 °F - 73.4 °F 83% 29.74 in 6.2 mi NNW 8.1 mph - N/A   Unknown
10:00 PM 77.0 °F - 73.4 °F 89% 29.74 in 6.2 mi North 5.8 mph - N/A   Unknown
11:00 PM 77.0 °F - 73.4 °F 89% 29.74 in 6.2 mi NW 5.8 mph - N/A   Unknown